Wetterdaten: Sonntag, 22.07.2018
Datum Zeit Temp. A. Aussen2m Boden Feuchte A. Feuchte 2 Luftdruck Regen Wind Richtung Richtung Sonnenschein
22.07.2018 00:00 22,4 C 22,6 C 10,8 C 55 % 63 % 1009,6 hPa 0,0 l/m 17,6 km/h (3 Bft) W-NW 285 0 min
22.07.2018 00:05 22,4 C 22,5 C 10,8 C 56 % 63 % 1009,6 hPa 0,0 l/m 14,5 km/h (3 Bft) NW 305 0 min
22.07.2018 00:10 22,2 C 22,4 C 10,8 C 56 % 63 % 1009,6 hPa 0,0 l/m 16,9 km/h (3 Bft) W-NW 290 0 min
22.07.2018 00:15 22,2 C 22,3 C 10,8 C 56 % 64 % 1009,6 hPa 0,0 l/m 16,9 km/h (3 Bft) W-NW 300 0 min
22.07.2018 00:20 22,1 C 22,2 C 10,8 C 57 % 64 % 1009,6 hPa 0,0 l/m 15,7 km/h (3 Bft) W-NW 290 0 min
22.07.2018 00:25 21,9 C 22,2 C 10,8 C 57 % 64 % 1009,6 hPa 0,0 l/m 12,7 km/h (3 Bft) W-NW 300 0 min
22.07.2018 00:30 21,9 C 22,0 C 10,8 C 57 % 65 % 1009,6 hPa 0,0 l/m 16,9 km/h (3 Bft) W 260 0 min
22.07.2018 00:35 21,8 C 21,9 C 10,8 C 58 % 65 % 1009,6 hPa 0,0 l/m 15,7 km/h (3 Bft) W 260 0 min
22.07.2018 00:40 21,7 C 21,8 C 10,8 C 59 % 65 % 1009,6 hPa 0,0 l/m 13,3 km/h (3 Bft) NW 320 0 min
22.07.2018 00:45 21,6 C 21,7 C 10,8 C 59 % 66 % 1009,6 hPa 0,0 l/m 12,1 km/h (2 Bft) W-NW 295 0 min
22.07.2018 00:50 21,6 C 21,7 C 10,8 C 59 % 66 % 1009,6 hPa 0,0 l/m 13,9 km/h (3 Bft) NW 310 0 min
22.07.2018 00:55 21,6 C 21,7 C 10,8 C 59 % 65 % 1009,6 hPa 0,0 l/m 16,9 km/h (3 Bft) W-NW 300 0 min
22.07.2018 01:00 21,5 C 21,6 C 10,8 C 59 % 65 % 1009,6 hPa 0,0 l/m 20,0 km/h (4 Bft) W-NW 285 0 min
22.07.2018 01:05 21,2 C 21,5 C 10,8 C 60 % 66 % 1009,6 hPa 0,0 l/m 12,7 km/h (3 Bft) W-NW 290 0 min
22.07.2018 01:10 21,1 C 21,3 C 10,8 C 60 % 66 % 1009,6 hPa 0,0 l/m 16,9 km/h (3 Bft) NW 315 0 min
22.07.2018 01:15 21,1 C 21,2 C 10,8 C 60 % 67 % 1009,6 hPa 0,0 l/m 19,4 km/h (3 Bft) NW 315 0 min
22.07.2018 01:20 21,0 C 21,1 C 10,8 C 59 % 66 % 1009,6 hPa 0,0 l/m 18,2 km/h (3 Bft) W-NW 285 0 min
22.07.2018 01:25 20,9 C 21,1 C 10,8 C 60 % 66 % 1009,6 hPa 0,0 l/m 20,6 km/h (4 Bft) W-NW 295 0 min
22.07.2018 01:30 20,9 C 20,9 C 10,8 C 60 % 67 % 1009,6 hPa 0,0 l/m 19,4 km/h (3 Bft) NW 320 0 min
22.07.2018 01:35 20,7 C 20,9 C 10,8 C 60 % 67 % 1009,6 hPa 0,0 l/m 15,7 km/h (3 Bft) NW 310 0 min
22.07.2018 01:40 20,5 C 20,7 C 10,8 C 61 % 67 % 1009,6 hPa 0,0 l/m 13,3 km/h (3 Bft) SW 235 0 min
22.07.2018 01:45 20,5 C 20,6 C 10,8 C 61 % 67 % 1009,6 hPa 0,0 l/m 17,6 km/h (3 Bft) W 265 0 min
22.07.2018 01:50 20,5 C 20,6 C 10,8 C 61 % 68 % 1010,6 hPa 0,0 l/m 14,5 km/h (3 Bft) NW 320 0 min
22.07.2018 01:55 20,3 C 20,5 C 10,8 C 62 % 68 % 1010,6 hPa 0,0 l/m 13,3 km/h (3 Bft) W-NW 300 0 min
22.07.2018 02:00 20,2 C 20,4 C 10,8 C 62 % 68 % 1010,6 hPa 0,0 l/m 13,9 km/h (3 Bft) W-NW 290 0 min
22.07.2018 02:05 20,0 C 20,2 C 10,8 C 63 % 69 % 1009,6 hPa 0,0 l/m 12,7 km/h (3 Bft) W-NW 290 0 min
22.07.2018 02:10 19,9 C 20,1 C 10,8 C 63 % 69 % 1009,6 hPa 0,0 l/m 14,5 km/h (3 Bft) W-NW 290 0 min
22.07.2018 02:15 19,8 C 20,0 C 10,8 C 63 % 69 % 1009,6 hPa 0,0 l/m 13,3 km/h (3 Bft) NW 305 0 min
22.07.2018 02:20 19,7 C 19,9 C 10,8 C 64 % 70 % 1010,6 hPa 0,0 l/m 13,9 km/h (3 Bft) W 260 0 min
22.07.2018 02:25 19,6 C 19,8 C 10,8 C 64 % 70 % 1010,6 hPa 0,0 l/m 11,5 km/h (2 Bft) NW 305 0 min
22.07.2018 02:30 19,5 C 19,8 C 10,8 C 64 % 70 % 1010,6 hPa 0,0 l/m 13,3 km/h (3 Bft) W-NW 300 0 min
22.07.2018 02:35 19,5 C 19,6 C 10,8 C 65 % 71 % 1010,6 hPa 0,0 l/m 16,3 km/h (3 Bft) W-NW 295 0 min
22.07.2018 02:40 19,4 C 19,5 C 10,8 C 65 % 71 % 1010,7 hPa 0,0 l/m 13,9 km/h (3 Bft) W 275 0 min
22.07.2018 02:45 19,3 C 19,4 C 10,8 C 65 % 71 % 1010,7 hPa 0,0 l/m 14,5 km/h (3 Bft) W-NW 290 0 min
22.07.2018 02:50 19,3 C 19,4 C 10,8 C 65 % 71 % 1010,7 hPa 0,0 l/m 14,5 km/h (3 Bft) W-NW 300 0 min
22.07.2018 02:55 19,2 C 19,3 C 10,8 C 66 % 71 % 1010,7 hPa 0,0 l/m 15,1 km/h (3 Bft) NW 310 0 min
22.07.2018 03:00 19,0 C 19,2 C 10,8 C 66 % 72 % 1010,7 hPa 0,0 l/m 9,7 km/h (2 Bft) W-NW 295 0 min
22.07.2018 03:05 19,0 C 19,0 C 10,8 C 67 % 73 % 1010,7 hPa 0,0 l/m 11,5 km/h (2 Bft) NW 305 0 min
22.07.2018 03:10 18,9 C 19,0 C 10,8 C 67 % 73 % 1010,7 hPa 0,0 l/m 13,3 km/h (3 Bft) NW 320 0 min
22.07.2018 03:15 18,9 C 19,0 C 10,8 C 67 % 73 % 1010,7 hPa 0,0 l/m 12,7 km/h (3 Bft) W-NW 300 0 min
22.07.2018 03:20 18,8 C 18,9 C 10,8 C 68 % 73 % 1010,7 hPa 0,0 l/m 12,7 km/h (3 Bft) W-SW 250 0 min
22.07.2018 03:25 18,7 C 18,8 C 10,8 C 68 % 73 % 1010,7 hPa 0,0 l/m 12,7 km/h (3 Bft) W-NW 290 0 min
22.07.2018 03:30 18,6 C 18,8 C 10,8 C 68 % 73 % 1010,7 hPa 0,0 l/m 13,9 km/h (3 Bft) W-NW 285 0 min
22.07.2018 03:35 18,6 C 18,7 C 10,8 C 67 % 73 % 1009,7 hPa 0,0 l/m 15,1 km/h (3 Bft) NW 315 0 min
22.07.2018 03:40 18,5 C 18,6 C 10,8 C 68 % 73 % 1009,7 hPa 0,0 l/m 7,9 km/h (2 Bft) W 260 0 min
22.07.2018 03:45 18,4 C 18,4 C 10,8 C 68 % 74 % 1009,7 hPa 0,0 l/m 9,1 km/h (2 Bft) W-NW 295 0 min
22.07.2018 03:50 18,3 C 18,4 C 10,8 C 69 % 74 % 1010,7 hPa 0,0 l/m 10,9 km/h (2 Bft) W-NW 295 0 min
22.07.2018 03:55 18,1 C 18,2 C 10,8 C 69 % 75 % 1010,7 hPa 0,0 l/m 9,1 km/h (2 Bft) W-NW 290 0 min
22.07.2018 04:00 18,0 C 18,2 C 10,8 C 69 % 75 % 1010,7 hPa 0,0 l/m 12,1 km/h (2 Bft) W 260 0 min
22.07.2018 04:05 18,0 C 18,2 C 10,8 C 70 % 75 % 1010,7 hPa 0,0 l/m 10,3 km/h (2 Bft) NW 315 0 min
22.07.2018 04:10 17,9 C 18,0 C 10,8 C 70 % 75 % 1010,7 hPa 0,0 l/m 7,9 km/h (2 Bft) W-NW 290 0 min
22.07.2018 04:15 17,8 C 18,0 C 10,8 C 70 % 75 % 1010,7 hPa 0,0 l/m 7,9 km/h (2 Bft) W-NW 300 0 min
22.07.2018 04:20 17,7 C 17,9 C 10,8 C 71 % 76 % 1010,7 hPa 0,0 l/m 10,3 km/h (2 Bft) W 270 0 min
22.07.2018 04:25 17,7 C 17,8 C 10,8 C 71 % 76 % 1010,7 hPa 0,0 l/m 7,9 km/h (2 Bft) W-NW 300 0 min
22.07.2018 04:30 17,6 C 17,7 C 10,8 C 71 % 77 % 1010,7 hPa 0,0 l/m 12,1 km/h (2 Bft) W-NW 295 0 min
22.07.2018 04:35 17,5 C 17,6 C 10,8 C 71 % 77 % 1010,7 hPa 0,0 l/m 8,5 km/h (2 Bft) W 280 0 min
22.07.2018 04:40 17,4 C 17,6 C 10,8 C 72 % 77 % 1010,7 hPa 0,0 l/m 10,9 km/h (2 Bft) S 180 0 min
22.07.2018 04:45 17,3 C 17,5 C 10,8 C 72 % 77 % 1010,7 hPa 0,0 l/m 9,7 km/h (2 Bft) W-NW 300 0 min
22.07.2018 04:50 17,3 C 17,5 C 10,8 C 72 % 77 % 1010,7 hPa 0,0 l/m 9,7 km/h (2 Bft) S-SW 195 0 min
22.07.2018 04:55 17,2 C 17,4 C 10,8 C 72 % 77 % 1010,7 hPa 0,0 l/m 7,3 km/h (2 Bft) NW 310 0 min
22.07.2018 05:00 17,1 C 17,4 C 10,8 C 72 % 77 % 1010,7 hPa 0,0 l/m 7,9 km/h (2 Bft) W 280 0 min
22.07.2018 05:05 17,0 C 17,3 C 10,8 C 73 % 77 % 1010,7 hPa 0,0 l/m 6,1 km/h (2 Bft) NW 305 0 min
22.07.2018 05:10 17,0 C 17,2 C 10,8 C 73 % 78 % 1010,7 hPa 0,0 l/m 6,1 km/h (2 Bft) W-NW 285 0 min
22.07.2018 05:15 16,9 C 17,1 C 10,8 C 73 % 78 % 1010,7 hPa 0,0 l/m 9,1 km/h (2 Bft) W-NW 300 0 min
22.07.2018 05:20 16,8 C 17,0 C 10,8 C 74 % 78 % 1010,7 hPa 0,0 l/m 9,1 km/h (2 Bft) W 270 0 min
22.07.2018 05:25 16,7 C 17,0 C 10,8 C 74 % 79 % 1010,7 hPa 0,0 l/m 10,3 km/h (2 Bft) W-NW 285 0 min
22.07.2018 05:30 16,7 C 16,9 C 10,8 C 74 % 79 % 1010,7 hPa 0,0 l/m 10,3 km/h (2 Bft) W-NW 285 0 min
22.07.2018 05:35 16,6 C 16,8 C 10,8 C 74 % 79 % 1010,7 hPa 0,0 l/m 7,9 km/h (2 Bft) W-NW 290 0 min
22.07.2018 05:40 16,5 C 16,8 C 10,8 C 75 % 79 % 1010,7 hPa 0,0 l/m 8,5 km/h (2 Bft) W 275 0 min
22.07.2018 05:45 16,5 C 16,7 C 10,8 C 75 % 79 % 1010,7 hPa 0,0 l/m 9,1 km/h (2 Bft) N-NW 330 0 min
22.07.2018 05:50 16,4 C 16,6 C 10,8 C 75 % 80 % 1011,7 hPa 0,0 l/m 7,9 km/h (2 Bft) W-NW 295 0 min
22.07.2018 05:55 16,4 C 16,6 C 10,8 C 76 % 80 % 1011,7 hPa 0,0 l/m 5,4 km/h (2 Bft) W 275 0 min
22.07.2018 06:00 16,3 C 16,6 C 10,8 C 76 % 80 % 1011,7 hPa 0,0 l/m 7,3 km/h (2 Bft) W 270 0 min
22.07.2018 06:05 16,3 C 16,6 C 10,8 C 76 % 80 % 1010,7 hPa 0,0 l/m 3,6 km/h (1 Bft) S 185 0 min
22.07.2018 06:10 16,3 C 16,6 C 10,8 C 76 % 80 % 1010,7 hPa 0,0 l/m 3,6 km/h (1 Bft) NW 310 0 min
22.07.2018 06:15 16,2 C 16,5 C 10,8 C 76 % 81 % 1010,7 hPa 0,0 l/m 4,8 km/h (1 Bft) N-NW 340 0 min
22.07.2018 06:20 16,3 C 16,5 C 10,8 C 77 % 81 % 1011,7 hPa 0,0 l/m 6,7 km/h (2 Bft) W 275 0 min
22.07.2018 06:25 16,3 C 16,5 C 10,8 C 77 % 81 % 1011,7 hPa 0,0 l/m 7,3 km/h (2 Bft) W-NW 300 0 min
22.07.2018 06:30 16,3 C 16,5 C 10,8 C 77 % 82 % 1011,7 hPa 0,0 l/m 6,7 km/h (2 Bft) NW 320 0 min
22.07.2018 06:35 16,3 C 16,5 C 10,8 C 77 % 82 % 1011,7 hPa 0,0 l/m 8,5 km/h (2 Bft) SW 225 0 min
22.07.2018 06:40 16,4 C 16,6 C 10,8 C 77 % 82 % 1011,7 hPa 0,0 l/m 6,1 km/h (2 Bft) W 280 0 min
22.07.2018 06:45 16,4 C 16,6 C 10,8 C 78 % 83 % 1011,7 hPa 0,0 l/m 7,3 km/h (2 Bft) W 280 0 min
22.07.2018 06:50 16,5 C 16,6 C 10,8 C 78 % 83 % 1011,7 hPa 0,0 l/m 9,7 km/h (2 Bft) W-NW 290 0 min
22.07.2018 06:55 16,6 C 16,7 C 10,8 C 77 % 83 % 1011,7 hPa 0,0 l/m 10,9 km/h (2 Bft) W-NW 300 0 min
22.07.2018 07:00 16,6 C 16,8 C 10,8 C 77 % 83 % 1011,7 hPa 0,0 l/m 8,5 km/h (2 Bft) SW 230 0 min
22.07.2018 07:05 16,7 C 16,8 C 10,8 C 77 % 83 % 1011,7 hPa 0,0 l/m 11,5 km/h (2 Bft) W-NW 285 0 min
22.07.2018 07:10 16,7 C 16,9 C 10,8 C 77 % 82 % 1011,7 hPa 0,0 l/m 12,1 km/h (2 Bft) W-NW 295 0 min
22.07.2018 07:15 16,8 C 17,0 C 10,8 C 77 % 82 % 1011,7 hPa 0,0 l/m 14,5 km/h (3 Bft) NW 315 0 min
22.07.2018 07:20 17,0 C 17,0 C 10,8 C 77 % 82 % 1010,7 hPa 0,0 l/m 7,9 km/h (2 Bft) W 275 0 min
22.07.2018 07:25 17,0 C 17,1 C 10,8 C 77 % 82 % 1010,7 hPa 0,0 l/m 11,5 km/h (2 Bft) NW 325 0 min
22.07.2018 07:30 17,1 C 17,2 C 10,8 C 76 % 82 % 1010,7 hPa 0,0 l/m 9,1 km/h (2 Bft) W-NW 300 0 min
22.07.2018 07:35 17,1 C 17,2 C 10,8 C 76 % 81 % 1011,7 hPa 0,0 l/m 12,1 km/h (2 Bft) NW 320 0 min
22.07.2018 07:40 17,3 C 17,4 C 10,8 C 75 % 81 % 1011,7 hPa 0,0 l/m 12,1 km/h (2 Bft) W-NW 285 0 min
22.07.2018 07:45 17,3 C 17,4 C 10,8 C 75 % 81 % 1011,7 hPa 0,0 l/m 13,3 km/h (3 Bft) N-NW 340 0 min
22.07.2018 07:50 17,4 C 17,5 C 10,8 C 75 % 80 % 1011,7 hPa 0,0 l/m 16,3 km/h (3 Bft) SW 220 0 min
22.07.2018 07:55 17,6 C 17,6 C 10,8 C 74 % 80 % 1011,7 hPa 0,0 l/m 14,5 km/h (3 Bft) W-NW 295 0 min
22.07.2018 08:00 17,7 C 17,6 C 10,8 C 74 % 80 % 1011,7 hPa 0,0 l/m 10,3 km/h (2 Bft) W-SW 245 0 min
22.07.2018 08:05 17,8 C 17,8 C 10,8 C 73 % 80 % 1011,7 hPa 0,0 l/m 9,7 km/h (2 Bft) W-NW 290 1 min
22.07.2018 08:10 18,0 C 17,9 C 10,8 C 72 % 79 % 1011,7 hPa 0,0 l/m 12,1 km/h (2 Bft) W-NW 285 6 min
22.07.2018 08:15 18,1 C 18,2 C 10,8 C 72 % 78 % 1011,7 hPa 0,0 l/m 13,9 km/h (3 Bft) W 275 4 min
22.07.2018 08:20 18,3 C 18,2 C 10,8 C 71 % 77 % 1011,7 hPa 0,0 l/m 13,3 km/h (3 Bft) W 280 6 min
22.07.2018 08:25 18,4 C 18,3 C 10,8 C 70 % 76 % 1011,7 hPa 0,0 l/m 12,1 km/h (2 Bft) W-NW 300 4 min
22.07.2018 08:30 18,5 C 18,4 C 10,8 C 70 % 76 % 1011,7 hPa 0,0 l/m 12,1 km/h (2 Bft) N-NW 330 6 min
22.07.2018 08:35 18,6 C 18,5 C 10,8 C 69 % 75 % 1012,7 hPa 0,0 l/m 13,3 km/h (3 Bft) W-NW 295 5 min
22.07.2018 08:40 18,8 C 18,7 C 10,8 C 68 % 75 % 1012,7 hPa 0,0 l/m 10,9 km/h (2 Bft) W-NW 295 5 min
22.07.2018 08:45 19,2 C 18,9 C 10,8 C 67 % 74 % 1012,7 hPa 0,0 l/m 10,3 km/h (2 Bft) W-NW 290 5 min
22.07.2018 08:50 19,3 C 19,1 C 10,8 C 66 % 73 % 1011,7 hPa 0,0 l/m 10,9 km/h (2 Bft) S-SW 205 6 min
22.07.2018 08:55 19,8 C 19,3 C 10,8 C 65 % 72 % 1011,7 hPa 0,0 l/m 12,1 km/h (2 Bft) W-NW 290 3 min
22.07.2018 09:00 19,8 C 19,6 C 10,8 C 64 % 71 % 1011,7 hPa 0,0 l/m 16,3 km/h (3 Bft) W 275 6 min
22.07.2018 09:05 19,8 C 19,7 C 10,8 C 64 % 71 % 1011,7 hPa 0,0 l/m 12,7 km/h (3 Bft) W-NW 300 3 min
22.07.2018 09:10 20,2 C 19,8 C 10,8 C 61 % 70 % 1011,7 hPa 0,0 l/m 15,7 km/h (3 Bft) N-NW 340 8 min
22.07.2018 09:15 20,6 C 20,2 C 10,8 C 60 % 68 % 1011,6 hPa 0,0 l/m 16,9 km/h (3 Bft) W 280 3 min
22.07.2018 09:20 20,4 C 20,2 C 10,8 C 60 % 68 % 1012,6 hPa 0,0 l/m 10,9 km/h (2 Bft) W-NW 290 2 min
22.07.2018 09:25 20,4 C 20,3 C 10,8 C 60 % 68 % 1012,6 hPa 0,0 l/m 11,5 km/h (2 Bft) W-NW 300 0 min
22.07.2018 09:30 20,6 C 20,6 C 10,8 C 60 % 67 % 1012,6 hPa 0,0 l/m 10,9 km/h (2 Bft) N-NO 30 6 min
22.07.2018 09:35 21,0 C 20,7 C 10,8 C 59 % 66 % 1012,6 hPa 0,0 l/m 9,7 km/h (2 Bft) W 270 2 min
22.07.2018 09:40 21,5 C 20,8 C 10,8 C 57 % 66 % 1012,6 hPa 0,0 l/m 9,7 km/h (2 Bft) N-NW 330 5 min
22.07.2018 09:45 21,8 C 21,0 C 10,8 C 56 % 64 % 1012,6 hPa 0,0 l/m 6,7 km/h (2 Bft) W 270 1 min
22.07.2018 09:50 21,8 C 21,1 C 10,8 C 55 % 64 % 1011,6 hPa 0,0 l/m 7,9 km/h (2 Bft) W-NW 290 0 min
22.07.2018 09:55 22,3 C 21,4 C 10,8 C 53 % 64 % 1011,6 hPa 0,0 l/m 12,1 km/h (2 Bft) NW 325 3 min
22.07.2018 10:00 22,1 C 21,5 C 10,8 C 53 % 61 % 1011,6 hPa 0,0 l/m 11,5 km/h (2 Bft) W 265 1 min
22.07.2018 10:05 22,7 C 21,7 C 10,8 C 52 % 61 % 1011,6 hPa 0,0 l/m 10,3 km/h (2 Bft) N 10 6 min
22.07.2018 10:10 22,7 C 22,2 C 10,8 C 51 % 59 % 1011,6 hPa 0,0 l/m 13,3 km/h (3 Bft) N-NO 20 3 min
22.07.2018 10:15 22,9 C 22,2 C 10,8 C 48 % 58 % 1011,6 hPa 0,0 l/m 12,7 km/h (3 Bft) W-NW 285 5 min
22.07.2018 10:20 23,1 C 22,5 C 10,8 C 47 % 57 % 1012,6 hPa 0,0 l/m 13,3 km/h (3 Bft) N-NO 30 5 min
22.07.2018 10:25 23,1 C 22,8 C 10,8 C 46 % 55 % 1012,6 hPa 0,0 l/m 12,1 km/h (2 Bft) N 10 5 min
22.07.2018 10:30 23,3 C 22,8 C 10,8 C 47 % 56 % 1012,6 hPa 0,0 l/m 7,3 km/h (2 Bft) W-NW 290 5 min
22.07.2018 10:35 23,5 C 22,9 C 10,8 C 47 % 56 % 1011,6 hPa 0,0 l/m 7,3 km/h (2 Bft) NW 310 6 min
22.07.2018 10:40 23,3 C 22,8 C 10,8 C 47 % 57 % 1011,6 hPa 0,0 l/m 8,5 km/h (2 Bft) W-NW 300 5 min
22.07.2018 10:45 23,6 C 23,0 C 10,8 C 47 % 55 % 1011,6 hPa 0,0 l/m 13,9 km/h (3 Bft) W-NW 295 5 min
22.07.2018 10:50 23,9 C 23,2 C 10,8 C 45 % 54 % 1011,6 hPa 0,0 l/m 16,9 km/h (3 Bft) W-NW 300 5 min
22.07.2018 10:55 23,8 C 23,4 C 10,8 C 45 % 53 % 1011,6 hPa 0,0 l/m 17,6 km/h (3 Bft) W-NW 300 5 min
22.07.2018 11:00 23,8 C 23,5 C 10,8 C 44 % 52 % 1011,6 hPa 0,0 l/m 12,7 km/h (3 Bft) W 270 5 min
22.07.2018 11:05 24,1 C 23,6 C 10,8 C 44 % 52 % 1012,6 hPa 0,0 l/m 9,7 km/h (2 Bft) W-NW 295 4 min
22.07.2018 11:10 24,3 C 23,8 C 10,8 C 42 % 49 % 1012,6 hPa 0,0 l/m 18,8 km/h (3 Bft) N 5 6 min
22.07.2018 11:15 24,5 C 23,9 C 10,8 C 42 % 50 % 1012,6 hPa 0,0 l/m 9,1 km/h (2 Bft) N-NW 340 4 min
22.07.2018 11:20 24,9 C 24,1 C 10,8 C 42 % 50 % 1012,6 hPa 0,0 l/m 13,9 km/h (3 Bft) N 355 6 min
22.07.2018 11:25 24,8 C 24,3 C 10,8 C 41 % 48 % 1012,6 hPa 0,0 l/m 14,5 km/h (3 Bft) NW 305 5 min
22.07.2018 11:30 25,1 C 24,3 C 10,8 C 41 % 49 % 1012,6 hPa 0,0 l/m 20,0 km/h (4 Bft) N-NW 335 6 min
22.07.2018 11:35 25,2 C 24,3 C 10,8 C 41 % 49 % 1012,6 hPa 0,0 l/m 14,5 km/h (3 Bft) NW 315 4 min
22.07.2018 11:40 25,0 C 24,6 C 10,8 C 41 % 48 % 1012,6 hPa 0,0 l/m 16,9 km/h (3 Bft) W-NW 295 6 min
22.07.2018 11:45 25,3 C 24,6 C 10,8 C 41 % 48 % 1012,6 hPa 0,0 l/m 14,5 km/h (3 Bft) N 10 5 min
22.07.2018 11:50 25,9 C 24,8 C 10,8 C 40 % 48 % 1012,6 hPa 0,0 l/m 10,3 km/h (2 Bft) NW 315 5 min
22.07.2018 11:55 25,6 C 25,0 C 10,8 C 40 % 47 % 1012,6 hPa 0,0 l/m 20,0 km/h (4 Bft) N-NW 345 3 min
22.07.2018 12:00 25,6 C 24,9 C 10,8 C 40 % 48 % 1012,6 hPa 0,0 l/m 4,8 km/h (1 Bft) S-SW 200 7 min
22.07.2018 12:05 25,8 C 25,2 C 10,8 C 40 % 49 % 1012,6 hPa 0,0 l/m 6,7 km/h (2 Bft) S-SW 205 3 min
22.07.2018 12:10 26,4 C 25,6 C 10,8 C 38 % 47 % 1012,6 hPa 0,0 l/m 14,5 km/h (3 Bft) N-NO 25 7 min
22.07.2018 12:15 26,2 C 25,8 C 10,8 C 38 % 44 % 1012,6 hPa 0,0 l/m 20,0 km/h (4 Bft) O-NO 65 3 min
22.07.2018 12:20 26,4 C 25,9 C 10,8 C 38 % 46 % 1011,6 hPa 0,0 l/m 14,5 km/h (3 Bft) W-SW 255 5 min
22.07.2018 12:25 26,0 C 26,0 C 10,8 C 39 % 44 % 1011,6 hPa 0,0 l/m 15,7 km/h (3 Bft) N-NO 20 4 min
22.07.2018 12:30 26,1 C 26,2 C 10,8 C 38 % 44 % 1011,6 hPa 0,0 l/m 17,6 km/h (3 Bft) S 175 6 min
22.07.2018 12:35 26,5 C 26,3 C 10,8 C 38 % 43 % 1012,6 hPa 0,0 l/m 13,9 km/h (3 Bft) N 10 4 min
22.07.2018 12:40 26,7 C 26,3 C 10,8 C 38 % 45 % 1012,6 hPa 0,0 l/m 15,7 km/h (3 Bft) N 5 6 min
22.07.2018 12:45 26,4 C 26,5 C 10,8 C 38 % 43 % 1012,6 hPa 0,0 l/m 15,7 km/h (3 Bft) NW 310 7 min
22.07.2018 12:50 26,1 C 26,2 C 10,8 C 39 % 44 % 1012,6 hPa 0,0 l/m 16,9 km/h (3 Bft) NW 305 3 min
22.07.2018 12:55 26,5 C 26,3 C 10,8 C 38 % 45 % 1012,6 hPa 0,0 l/m 10,3 km/h (2 Bft) S-SO 155 5 min
22.07.2018 13:00 27,3 C 26,6 C 10,8 C 38 % 45 % 1012,6 hPa 0,0 l/m 13,9 km/h (3 Bft) N-NO 20 5 min
22.07.2018 13:05 27,0 C 26,8 C 10,8 C 38 % 44 % 1011,6 hPa 0,0 l/m 18,2 km/h (3 Bft) N-NW 345 4 min
22.07.2018 13:10 26,8 C 26,8 C 10,8 C 39 % 45 % 1011,6 hPa 0,0 l/m 19,4 km/h (3 Bft) N-NO 20 5 min
22.07.2018 13:15 26,7 C 26,7 C 10,8 C 38 % 44 % 1011,6 hPa 0,0 l/m 17,6 km/h (3 Bft) N-NW 340 5 min
22.07.2018 13:20 27,2 C 26,7 C 10,8 C 38 % 44 % 1012,6 hPa 0,0 l/m 12,7 km/h (3 Bft) NO 40 5 min
22.07.2018 13:25 27,9 C 26,8 C 10,8 C 37 % 44 % 1012,6 hPa 0,0 l/m 6,1 km/h (2 Bft) W-NW 300 7 min
22.07.2018 13:30 27,6 C 26,7 C 10,8 C 37 % 44 % 1012,6 hPa 0,0 l/m 10,3 km/h (2 Bft) W-NW 290 3 min
22.07.2018 13:35 28,1 C 27,0 C 10,8 C 37 % 44 % 1011,6 hPa 0,0 l/m 12,7 km/h (3 Bft) N-NW 345 4 min
22.07.2018 13:40 27,8 C 27,3 C 10,8 C 37 % 44 % 1011,6 hPa 0,0 l/m 10,9 km/h (2 Bft) NW 315 5 min
22.07.2018 13:45 28,1 C 27,4 C 10,8 C 37 % 44 % 1011,6 hPa 0,0 l/m 9,1 km/h (2 Bft) W 270 6 min
22.07.2018 13:50 27,5 C 27,2 C 10,8 C 38 % 44 % 1011,6 hPa 0,0 l/m 9,7 km/h (2 Bft) N 350 0 min
22.07.2018 13:55 27,2 C 27,0 C 10,8 C 38 % 45 % 1011,6 hPa 0,0 l/m 14,5 km/h (3 Bft) N 10 0 min
22.07.2018 14:00 27,1 C 26,9 C 10,8 C 38 % 45 % 1011,6 hPa 0,0 l/m 7,3 km/h (2 Bft) N 5 0 min
22.07.2018 14:05 27,0 C 26,8 C 10,8 C 39 % 46 % 1011,6 hPa 0,0 l/m 11,5 km/h (2 Bft) NO 35 2 min
22.07.2018 14:10 27,1 C 26,9 C 10,8 C 39 % 46 % 1011,6 hPa 0,0 l/m 4,8 km/h (1 Bft) N-NW 345 4 min
22.07.2018 14:15 27,7 C 27,0 C 10,8 C 38 % 45 % 1011,6 hPa 0,0 l/m 7,3 km/h (2 Bft) N 10 5 min
22.07.2018 14:20 27,5 C 27,1 C 10,8 C 38 % 45 % 1012,6 hPa 0,0 l/m 9,7 km/h (2 Bft) W-NW 295 1 min
22.07.2018 14:25 27,3 C 27,0 C 10,8 C 38 % 44 % 1012,6 hPa 0,0 l/m 11,5 km/h (2 Bft) N 355 0 min
22.07.2018 14:30 27,1 C 27,0 C 10,8 C 38 % 43 % 1012,6 hPa 0,0 l/m 13,9 km/h (3 Bft) N-NO 30 2 min
22.07.2018 14:35 27,2 C 27,2 C 10,8 C 38 % 43 % 1011,6 hPa 0,0 l/m 8,5 km/h (2 Bft) N-NO 20 2 min
22.07.2018 14:40 27,3 C 27,3 C 10,8 C 38 % 44 % 1011,6 hPa 0,0 l/m 17,6 km/h (3 Bft) W 270 3 min
22.07.2018 14:45 27,8 C 27,4 C 10,8 C 37 % 43 % 1011,6 hPa 0,0 l/m 9,1 km/h (2 Bft) SW 225 4 min
22.07.2018 14:50 27,5 C 27,4 C 10,8 C 38 % 43 % 1011,6 hPa 0,0 l/m 16,3 km/h (3 Bft) W 280 6 min
22.07.2018 14:55 27,8 C 27,4 C 10,8 C 38 % 44 % 1011,6 hPa 0,0 l/m 10,9 km/h (2 Bft) N 355 5 min
22.07.2018 15:00 27,6 C 27,4 C 10,8 C 37 % 44 % 1011,6 hPa 0,0 l/m 6,7 km/h (2 Bft) W 270 5 min
22.07.2018 15:05 27,8 C 27,6 C 10,8 C 37 % 44 % 1011,6 hPa 0,0 l/m 24,2 km/h (4 Bft) N 10 5 min
22.07.2018 15:10 27,3 C 27,3 C 10,8 C 37 % 43 % 1011,6 hPa 0,0 l/m 12,1 km/h (2 Bft) NW 315 2 min
22.07.2018 15:15 27,3 C 27,4 C 10,8 C 38 % 43 % 1011,6 hPa 0,0 l/m 18,8 km/h (3 Bft) S 170 4 min
22.07.2018 15:20 28,2 C 27,8 C 10,8 C 37 % 43 % 1011,6 hPa 0,0 l/m 13,9 km/h (3 Bft) N-NW 330 3 min
22.07.2018 15:25 27,7 C 27,9 C 10,8 C 38 % 42 % 1011,6 hPa 0,0 l/m 24,8 km/h (4 Bft) NW 305 4 min
22.07.2018 15:30 27,5 C 27,9 C 10,8 C 38 % 43 % 1011,6 hPa 0,0 l/m 21,8 km/h (4 Bft) NW 315 3 min
22.07.2018 15:35 27,3 C 27,6 C 10,8 C 38 % 43 % 1011,6 hPa 0,0 l/m 15,7 km/h (3 Bft) W-NW 285 3 min
22.07.2018 15:40 27,7 C 27,5 C 10,8 C 38 % 44 % 1011,6 hPa 0,0 l/m 12,7 km/h (3 Bft) W-NW 285 0 min
22.07.2018 15:45 27,4 C 27,5 C 10,8 C 38 % 44 % 1011,6 hPa 0,0 l/m 13,9 km/h (3 Bft) W-NW 295 0 min
22.07.2018 15:50 27,1 C 27,3 C 10,8 C 39 % 45 % 1011,6 hPa 0,0 l/m 12,7 km/h (3 Bft) W 280 0 min
22.07.2018 15:55 27,2 C 27,3 C 10,8 C 39 % 45 % 1011,6 hPa 0,0 l/m 12,7 km/h (3 Bft) W-NW 300 0 min
22.07.2018 16:00 27,3 C 27,2 C 10,8 C 38 % 44 % 1011,6 hPa 0,0 l/m 9,1 km/h (2 Bft) W-SW 255 0 min
22.07.2018 16:05 27,3 C 27,2 C 10,8 C 38 % 43 % 1011,6 hPa 0,0 l/m 8,5 km/h (2 Bft) W 280 0 min
22.07.2018 16:10 27,2 C 27,2 C 10,8 C 38 % 44 % 1011,6 hPa 0,0 l/m 10,9 km/h (2 Bft) W-NW 300 0 min
22.07.2018 16:15 26,7 C 27,0 C 10,8 C 40 % 46 % 1011,6 hPa 0,0 l/m 23,0 km/h (4 Bft) W 275 0 min
22.07.2018 16:20 26,7 C 26,9 C 10,8 C 40 % 46 % 1011,6 hPa 0,0 l/m 20,6 km/h (4 Bft) NW 310 0 min
22.07.2018 16:25 26,7 C 26,8 C 10,8 C 40 % 46 % 1011,6 hPa 0,0 l/m 18,2 km/h (3 Bft) W-NW 290 0 min
22.07.2018 16:30 26,8 C 26,9 C 10,8 C 40 % 46 % 1011,6 hPa 0,0 l/m 21,2 km/h (4 Bft) S 175 0 min
22.07.2018 16:35 26,8 C 27,0 C 10,8 C 40 % 46 % 1011,6 hPa 0,0 l/m 24,8 km/h (4 Bft) W-NW 300 0 min
22.07.2018 16:40 26,9 C 27,0 C 10,8 C 40 % 46 % 1011,6 hPa 0,0 l/m 16,9 km/h (3 Bft) NW 305 0 min
22.07.2018 16:45 27,0 C 27,2 C 10,8 C 40 % 46 % 1011,6 hPa 0,0 l/m 26,0 km/h (4 Bft) W-NW 285 6 min
22.07.2018 16:50 27,1 C 27,3 C 10,8 C 40 % 46 % 1011,6 hPa 0,0 l/m 24,2 km/h (4 Bft) NW 320 4 min
22.07.2018 16:55 27,1 C 27,3 C 10,8 C 40 % 46 % 1011,6 hPa 0,0 l/m 19,4 km/h (3 Bft) W 260 6 min
22.07.2018 17:00 27,1 C 27,3 C 10,8 C 40 % 46 % 1011,6 hPa 0,0 l/m 18,8 km/h (3 Bft) W-NW 285 2 min
22.07.2018 17:05 27,2 C 27,2 C 10,8 C 40 % 46 % 1011,6 hPa 0,0 l/m 15,1 km/h (3 Bft) N-NW 335 0 min
22.07.2018 17:10 27,0 C 27,0 C 10,8 C 40 % 46 % 1011,6 hPa 0,0 l/m 19,4 km/h (3 Bft) N-NW 335 0 min
22.07.2018 17:15 26,9 C 27,1 C 10,8 C 40 % 46 % 1011,6 hPa 0,0 l/m 18,2 km/h (3 Bft) NW 320 0 min
22.07.2018 17:20 27,1 C 27,2 C 10,8 C 40 % 45 % 1011,6 hPa 0,0 l/m 15,7 km/h (3 Bft) W 280 2 min
22.07.2018 17:25 27,1 C 27,2 C 10,8 C 39 % 44 % 1011,6 hPa 0,0 l/m 23,0 km/h (4 Bft) W-NW 285 5 min
22.07.2018 17:30 27,2 C 27,4 C 10,8 C 39 % 44 % 1011,6 hPa 0,0 l/m 19,4 km/h (3 Bft) SW 225 5 min
22.07.2018 17:35 27,3 C 27,5 C 10,8 C 38 % 42 % 1011,6 hPa 0,0 l/m 26,7 km/h (4 Bft) W-NW 295 5 min
22.07.2018 17:40 27,3 C 27,6 C 10,8 C 38 % 44 % 1011,6 hPa 0,0 l/m 23,0 km/h (4 Bft) NW 305 5 min
22.07.2018 17:45 27,4 C 27,6 C 10,8 C 38 % 43 % 1011,6 hPa 0,0 l/m 24,2 km/h (4 Bft) W-NW 300 4 min
22.07.2018 17:50 27,3 C 27,7 C 10,8 C 38 % 42 % 1011,6 hPa 0,0 l/m 18,2 km/h (3 Bft) W-NW 290 6 min
22.07.2018 17:55 27,5 C 27,7 C 10,8 C 38 % 43 % 1011,6 hPa 0,0 l/m 23,6 km/h (4 Bft) W-SW 250 5 min
22.07.2018 18:00 27,3 C 27,6 C 10,8 C 39 % 44 % 1011,6 hPa 0,0 l/m 20,6 km/h (4 Bft) NW 305 1 min
22.07.2018 18:05 27,3 C 27,5 C 10,8 C 38 % 44 % 1011,6 hPa 0,0 l/m 21,8 km/h (4 Bft) W-NW 295 3 min
22.07.2018 18:10 27,3 C 27,6 C 10,8 C 38 % 44 % 1011,6 hPa 0,0 l/m 21,8 km/h (4 Bft) W-NW 285 2 min
22.07.2018 18:15 27,3 C 27,4 C 10,8 C 39 % 44 % 1011,6 hPa 0,0 l/m 21,8 km/h (4 Bft) W-NW 295 2 min
22.07.2018 18:20 27,4 C 27,7 C 10,8 C 38 % 43 % 1011,6 hPa 0,0 l/m 21,2 km/h (4 Bft) NW 305 0 min
22.07.2018 18:25 27,3 C 27,5 C 10,8 C 39 % 44 % 1011,6 hPa 0,0 l/m 21,2 km/h (4 Bft) W 270 0 min
22.07.2018 18:30 27,4 C 27,7 C 10,8 C 38 % 43 % 1011,6 hPa 0,0 l/m 20,6 km/h (4 Bft) W-NW 285 0 min
22.07.2018 18:35 27,3 C 27,5 C 10,8 C 39 % 44 % 1011,6 hPa 0,0 l/m 25,4 km/h (4 Bft) W-NW 295 0 min
22.07.2018 18:40 27,2 C 27,4 C 10,8 C 38 % 44 % 1011,6 hPa 0,0 l/m 23,6 km/h (4 Bft) W-NW 300 1 min
22.07.2018 18:45 27,3 C 27,4 C 10,8 C 39 % 44 % 1011,6 hPa 0,0 l/m 21,2 km/h (4 Bft) W 280 0 min
22.07.2018 18:50 27,6 C 27,7 C 10,8 C 38 % 44 % 1011,6 hPa 0,0 l/m 22,4 km/h (4 Bft) W-SW 255 5 min
22.07.2018 18:55 27,6 C 27,7 C 10,8 C 38 % 43 % 1011,6 hPa 0,0 l/m 20,6 km/h (4 Bft) W-NW 295 0 min
22.07.2018 19:00 27,7 C 27,8 C 10,8 C 38 % 43 % 1011,6 hPa 0,0 l/m 17,6 km/h (3 Bft) W-SW 245 1 min
22.07.2018 19:05 27,7 C 28,0 C 10,8 C 38 % 44 % 1010,5 hPa 0,0 l/m 16,3 km/h (3 Bft) N-NW 340 5 min
22.07.2018 19:10 27,8 C 28,0 C 10,8 C 38 % 44 % 1010,5 hPa 0,0 l/m 19,4 km/h (3 Bft) NW 310 5 min
22.07.2018 19:15 27,8 C 27,9 C 10,8 C 38 % 44 % 1010,5 hPa 0,0 l/m 14,5 km/h (3 Bft) W-SW 255 6 min
22.07.2018 19:20 27,9 C 27,8 C 10,8 C 38 % 44 % 1010,6 hPa 0,0 l/m 10,3 km/h (2 Bft) W-NW 295 5 min
22.07.2018 19:25 28,2 C 27,9 C 10,8 C 38 % 44 % 1010,5 hPa 0,0 l/m 15,7 km/h (3 Bft) N-NW 330 4 min
22.07.2018 19:30 28,0 C 27,8 C 10,8 C 38 % 44 % 1010,6 hPa 0,0 l/m 19,4 km/h (3 Bft) NW 305 3 min
22.07.2018 19:35 28,0 C 27,9 C 10,8 C 38 % 44 % 1011,6 hPa 0,0 l/m 12,7 km/h (3 Bft) W-NW 300 1 min
22.07.2018 19:40 28,0 C 27,9 C 10,8 C 38 % 44 % 1011,6 hPa 0,0 l/m 16,3 km/h (3 Bft) W-NW 285 0 min
22.07.2018 19:45 27,9 C 27,8 C 10,8 C 38 % 44 % 1011,6 hPa 0,0 l/m 8,5 km/h (2 Bft) N 355 0 min
22.07.2018 19:50 27,7 C 27,8 C 10,8 C 38 % 44 % 1011,6 hPa 0,0 l/m 10,3 km/h (2 Bft) N 5 0 min
22.07.2018 19:55 27,5 C 27,7 C 10,8 C 38 % 44 % 1011,6 hPa 0,0 l/m 14,5 km/h (3 Bft) W-NW 290 0 min
22.07.2018 20:00 27,5 C 27,6 C 10,8 C 38 % 44 % 1011,6 hPa 0,0 l/m 9,1 km/h (2 Bft) W 280 0 min
22.07.2018 20:05 27,7 C 27,6 C 10,8 C 38 % 44 % 1010,6 hPa 0,0 l/m 12,7 km/h (3 Bft) N-NO 20 0 min
22.07.2018 20:10 27,6 C 27,6 C 10,8 C 38 % 44 % 1010,6 hPa 0,0 l/m 11,5 km/h (2 Bft) W-NW 300 0 min
22.07.2018 20:15 27,4 C 27,5 C 10,8 C 38 % 43 % 1010,6 hPa 0,0 l/m 13,3 km/h (3 Bft) W 280 0 min
22.07.2018 20:20 27,3 C 27,4 C 10,8 C 38 % 43 % 1010,6 hPa 0,0 l/m 20,0 km/h (4 Bft) NW 325 0 min
22.07.2018 20:25 27,1 C 27,2 C 10,8 C 38 % 43 % 1010,6 hPa 0,0 l/m 19,4 km/h (3 Bft) W 280 0 min
22.07.2018 20:30 26,9 C 27,1 C 10,8 C 38 % 43 % 1010,6 hPa 0,0 l/m 21,8 km/h (4 Bft) W-NW 290 0 min
22.07.2018 20:35 26,8 C 27,0 C 10,8 C 38 % 43 % 1011,6 hPa 0,0 l/m 22,4 km/h (4 Bft) W-NW 290 0 min
22.07.2018 20:40 26,6 C 26,8 C 10,8 C 38 % 43 % 1011,6 hPa 0,0 l/m 21,8 km/h (4 Bft) NW 315 0 min
22.07.2018 20:45 26,5 C 26,6 C 10,8 C 38 % 44 % 1011,6 hPa 0,0 l/m 20,0 km/h (4 Bft) W-NW 290 0 min
22.07.2018 20:50 26,4 C 26,5 C 10,8 C 38 % 44 % 1011,6 hPa 0,0 l/m 18,8 km/h (3 Bft) W-NW 300 0 min
22.07.2018 20:55 26,2 C 26,4 C 10,8 C 39 % 45 % 1011,6 hPa 0,0 l/m 22,4 km/h (4 Bft) NW 310 0 min
22.07.2018 21:00 26,1 C 26,2 C 10,8 C 39 % 44 % 1011,6 hPa 0,0 l/m 21,8 km/h (4 Bft) NO 55 0 min
22.07.2018 21:05 26,1 C 26,1 C 10,8 C 39 % 45 % 1011,6 hPa 0,0 l/m 16,9 km/h (3 Bft) W-NW 295 0 min
22.07.2018 21:10 25,9 C 26,0 C 10,8 C 40 % 45 % 1011,6 hPa 0,0 l/m 14,5 km/h (3 Bft) W 265 0 min
22.07.2018 21:15 25,8 C 25,9 C 10,8 C 40 % 45 % 1011,6 hPa 0,0 l/m 18,8 km/h (3 Bft) NW 320 0 min
22.07.2018 21:20 25,7 C 25,8 C 10,8 C 40 % 46 % 1011,6 hPa 0,0 l/m 16,9 km/h (3 Bft) NW 310 0 min
22.07.2018 21:25 25,6 C 25,7 C 10,8 C 40 % 46 % 1011,6 hPa 0,0 l/m 16,9 km/h (3 Bft) NW 325 0 min
22.07.2018 21:30 25,4 C 25,6 C 10,8 C 40 % 46 % 1011,6 hPa 0,0 l/m 17,6 km/h (3 Bft) NW 320 0 min
22.07.2018 21:35 25,3 C 25,4 C 10,8 C 40 % 46 % 1011,6 hPa 0,0 l/m 18,8 km/h (3 Bft) NW 310 0 min
22.07.2018 21:40 25,0 C 25,2 C 10,8 C 41 % 47 % 1011,6 hPa 0,0 l/m 12,1 km/h (2 Bft) N-NW 345 0 min
22.07.2018 21:45 24,9 C 25,0 C 10,8 C 41 % 47 % 1011,6 hPa 0,0 l/m 12,7 km/h (3 Bft) O-SO 110 0 min
22.07.2018 21:50 24,8 C 25,0 C 10,8 C 41 % 47 % 1012,6 hPa 0,0 l/m 15,7 km/h (3 Bft) NW 305 0 min
22.07.2018 21:55 24,7 C 24,8 C 10,8 C 41 % 48 % 1012,6 hPa 0,0 l/m 19,4 km/h (3 Bft) W-NW 300 0 min
22.07.2018 22:00 24,6 C 24,7 C 10,8 C 42 % 48 % 1012,6 hPa 0,0 l/m 20,6 km/h (4 Bft) W-NW 295 0 min
22.07.2018 22:05 24,4 C 24,6 C 10,8 C 42 % 48 % 1012,6 hPa 0,0 l/m 19,4 km/h (3 Bft) W-NW 290 0 min
22.07.2018 22:10 24,3 C 24,5 C 10,8 C 42 % 49 % 1012,6 hPa 0,0 l/m 16,3 km/h (3 Bft) N 355 0 min
22.07.2018 22:15 24,1 C 24,4 C 10,8 C 43 % 49 % 1012,6 hPa 0,0 l/m 13,9 km/h (3 Bft) NW 310 0 min
22.07.2018 22:20 24,0 C 24,2 C 10,8 C 43 % 50 % 1012,6 hPa 0,0 l/m 15,7 km/h (3 Bft) W 275 0 min
22.07.2018 22:25 24,1 C 24,2 C 10,8 C 44 % 50 % 1012,6 hPa 0,0 l/m 16,3 km/h (3 Bft) NW 305 0 min
22.07.2018 22:30 24,0 C 24,2 C 10,8 C 44 % 50 % 1012,6 hPa 0,0 l/m 15,7 km/h (3 Bft) W-NW 295 0 min
22.07.2018 22:35 23,8 C 24,0 C 10,8 C 45 % 51 % 1012,6 hPa 0,0 l/m 13,3 km/h (3 Bft) W-NW 290 0 min
22.07.2018 22:40 23,7 C 23,8 C 10,8 C 45 % 52 % 1012,6 hPa 0,0 l/m 15,7 km/h (3 Bft) W-NW 295 0 min
22.07.2018 22:45 23,6 C 23,7 C 10,8 C 46 % 53 % 1012,6 hPa 0,0 l/m 15,7 km/h (3 Bft) N 10 0 min
22.07.2018 22:50 23,5 C 23,6 C 10,8 C 46 % 54 % 1012,6 hPa 0,0 l/m 13,3 km/h (3 Bft) N 350 0 min
22.07.2018 22:55 23,3 C 23,4 C 10,8 C 47 % 54 % 1012,6 hPa 0,0 l/m 13,3 km/h (3 Bft) NW 305 0 min
22.07.2018 23:00 23,2 C 23,4 C 10,8 C 47 % 54 % 1012,6 hPa 0,0 l/m 18,2 km/h (3 Bft) W 280 0 min
22.07.2018 23:05 23,1 C 23,2 C 10,8 C 48 % 56 % 1013,6 hPa 0,0 l/m 13,9 km/h (3 Bft) NW 310 0 min
22.07.2018 23:10 23,2 C 23,2 C 10,8 C 49 % 56 % 1013,6 hPa 0,0 l/m 16,9 km/h (3 Bft) W 270 0 min
22.07.2018 23:15 23,1 C 23,1 C 10,8 C 49 % 57 % 1013,6 hPa 0,0 l/m 14,5 km/h (3 Bft) W-NW 285 0 min
22.07.2018 23:20 23,0 C 23,1 C 10,8 C 49 % 57 % 1012,6 hPa 0,0 l/m 7,3 km/h (2 Bft) N-NW 330 0 min
22.07.2018 23:25 22,8 C 23,0 C 10,8 C 50 % 57 % 1012,6 hPa 0,0 l/m 9,1 km/h (2 Bft) N-NW 340 0 min
22.07.2018 23:30 22,6 C 22,8 C 10,8 C 51 % 58 % 1012,6 hPa 0,0 l/m 7,3 km/h (2 Bft) W-NW 295 0 min
22.07.2018 23:35 22,6 C 22,7 C 10,8 C 51 % 59 % 1012,6 hPa 0,0 l/m 6,1 km/h (2 Bft) W 270 0 min
22.07.2018 23:40 22,4 C 22,6 C 10,8 C 52 % 59 % 1012,6 hPa 0,0 l/m 7,3 km/h (2 Bft) W-NW 295 0 min
22.07.2018 23:45 22,4 C 22,6 C 10,8 C 52 % 59 % 1012,6 hPa 0,0 l/m 9,7 km/h (2 Bft) W-NW 295 0 min
22.07.2018 23:50 22,4 C 22,5 C 10,8 C 52 % 59 % 1013,6 hPa 0,0 l/m 5,4 km/h (2 Bft) NW 315 0 min
22.07.2018 23:55 22,3 C 22,5 C 10,8 C 52 % 59 % 1013,6 hPa 0,0 l/m 6,1 km/h (2 Bft) NW 320 0 min
_ Min-Zeit 06:15 06:15 00:00 13:25 15:25 00:00 - 06:05 - - -
Minimum _ 16,2 C 16,5 C 10,8 C 37 % 42 % 1009,6 hPa - 3,6 km/h (1 Bft) - - -
_ Max-Zeit 15:20 19:05 00:00 06:45 06:45 23:50 00:00 17:35 - - 09:10
Maximum _ 28,2 C 28,0 C 10,8 C 78 % 83 % 1013,6 hPa 0,0 l/m 26,7 km/h
W-NW (4 Bft)
- - 8 min
Durchschnitt _ 23,1 C 23,0 C 10,8 C 52 % 58 % 1011,5 hPa #0,0 l/m 13,9 km/h (3 Bft) W-NW - #7:56 h